Regional Weather Roundup
Issued by NWS

Home | Current Version | Previous Version | Graphics & Text | Print | Product List | Glossary On
Versions: 1 2 3 4 5 6 7 8 9 10 11 12 13 14 15 16 17 18 19 20 21 22 23 24 25 26 27 28 29 30 31 32 33 34 35 36 37 38 39 40 41 42 43 44 45 46 47 48 49 50
327
ASUS45 KTFX 260310
RWRMT
MONTANA REGIONAL WEATHER ROUNDUP
NATIONAL WEATHER SERVICE GREAT FALLS MT
900 PM MDT WED APR 25 2018

NOTE: "FAIR" INDICATES FEW OR NO CLOUDS BELOW 12000 FEET WITH NO
SIGNIFICANT WEATHER AND/OR OBSTRUCTIONS TO VISIBILITY.

MTZ001>007-043-260400-
WEST OF THE DIVIDE

CITY           SKY/WX    TMP DP  RH WIND       PRES   REMARKS
KALISPELL      FAIR      56  32  40 N6        30.10R
MISSOULA       FAIR      56  29  35 W8        30.10R
BUTTE          FAIR      50  28  42 NW9       30.19R
MULLAN PASS    FAIR      46  26  45 NW5       30.20S
ANACONDA         N/A     48  28  46 NW9       30.17R
DEER LODGE       N/A     46  32  57 NW8       30.21R
HAMILTON         N/A     57  30  35 MISG      30.13R
$$

MTZ008-052>055-260400-
SOUTHWEST MONTANA

CITY           SKY/WX    TMP DP  RH WIND       PRES   REMARKS
BOZEMAN        MOCLDY    51  31  46 NW9G18    30.19R
DILLON         FAIR      48  30  49 NE20      30.15R
ENNIS          PTCLDY    48  28  46 N17       30.20R
W YELLOWSTONE  CLOUDY    45  25  45 NE7       30.17R
THREE FORKS      N/A     52  32  46 CALM      30.17R
$$

MTZ009-010-012-014-046-048-049-054-260400-
EAST SLOPES AND CENTRAL MONTANA

CITY           SKY/WX    TMP DP  RH WIND       PRES   REMARKS
CUT BANK       FAIR      47  28  47 E5        30.19S
GREAT FALLS    FAIR      39  33  79 S10       30.22R
MALMSTROM AFB  FAIR      41  34  76 SW10      30.22R
HELENA         FAIR      47  34  60 W7        30.21R
AUGUSTA        FAIR      41  30  65 CALM      30.21R
BOWMANS CRNR   FAIR      46  29  51 CALM      30.20R
CHOTEAU          N/A     45  28  53 E7        30.23R
FAIRFIELD      FAIR      47  32  56 SE7       30.20R
POWER          FAIR      43  27  53 CALM      30.20S
RAYNESFORD     FAIR      44  31  62 S5        30.22R
ULM            FAIR      41  33  72 SW3       30.22R
WHITE SULPHUR    N/A     39  32  75 NW6G13    30.21R
$$

MTZ011-013-016-021-045-047-050-051-260400-
NORTH CENTRAL MONTANA

CITY           SKY/WX    TMP DP  RH WIND       PRES   REMARKS
HAVRE          FAIR      48  30  49 NW7       30.16R
LEWISTOWN      FAIR      40  33  76 W7        30.20R
N BAR RANCH    FAIR      41  34  75 NW16      30.20R
CHINOOK          N/A     48  36  61 W8        30.15R
GEYSER         FAIR      40  32  75 SW10      30.21R
GRASS RANGE    MOCLDY    44  37  74 SW14      30.16R
STANFORD       FAIR      40  31  69 W10       30.21R
$$

MTZ017>020-022>027-061-062-260400-
NORTHEAST MONTANA

CITY           SKY/WX    TMP DP  RH WIND       PRES   REMARKS
GLASGOW        CLOUDY    55  31  39 N12       30.06R
GLENDIVE       FAIR      54  29  38 N16       30.01R
JORDAN           N/A     51  32  48 NW12      30.09R
MALTA          PTCLDY    52  32  46 NW12      30.09R
SIDNEY         FAIR      55  29  36 N16       29.99R
WOLF POINT     FAIR      55  31  39 N9        30.05R
PLENTYWOOD       N/A     52  30  43 N10       30.02R
POPLAR           N/A     55  28  35 N14       30.04R
$$

MTZ028>42-056>058-260400-
SOUTHCENTRAL AND SOUTHEAST MONTANA

CITY           SKY/WX    TMP DP  RH WIND       PRES   REMARKS
BAKER          FAIR      50  33  52 W14       29.97R
BILLINGS       FAIR      48  34  58 N8        30.17R
LIVINGSTON     CLOUDY    47  33  58 E8        30.21R
MILES CITY     FAIR      56  32  40 NW17      30.04R
BIG TIMBER     CLOUDY    45  34  65 CALM      30.24R
FORSYTH          N/A     57  30  35 MISG      30.08R
HARLOWTON      FAIR      42  29  62 N13       30.21R
LAUREL           N/A     48  34  57 NW7       30.20R
$$

REGIONAL REPORTS...DAKOTAS

CITY           SKY/WX    TMP DP  RH WIND       PRES   REMARKS
WILLISTON      FAIR      56  31  38 N15       29.97R
MINOT          FAIR      55  35  47 NW17      29.86R
DICKINSON      FAIR      53  31  42 NW14      29.89R
BEACH          FAIR      50  27  40 N20       30.01R
CROSBY         FAIR      50  30  46 N15       29.99R
TIOGA          FAIR      52  32  46 N16       29.96R
WATFORD CITY   FAIR      55  34  44 N13G21    29.94R
BISMARCK       FAIR      57  30  35 SW5       29.80S
GRAND FORKS    MOCLDY    49  41  74 S13       29.75F
FARGO          FAIR      55  37  50 S15       29.83F
BUFFALO SD       N/A     58  28  32 NW25G36   29.87R
RAPID CITY     FAIR      58  30  34 N23       29.91R
$$

REGIONAL REPORTS...WYOMING/IDAHO/WASHINGTON

CITY           SKY/WX    TMP DP  RH WIND       PRES   REMARKS
GILLETTE       FAIR      51  31  46 N14       30.04R
SHERIDAN       FAIR      54  32  43 NW28G33   30.12R
BUFFALO WY     FAIR      53  26  35 NW29G38   30.10R
CODY           FAIR      49  31  49 N33       30.16R
YELLOWSTONE LA   N/A     36  30  79 NW5       30.24R
IDAHO FALLS    FAIR      57  29  34 S6        30.11R
SALMON         FAIR      59  22  24 NW8       30.12R
BOISE          FAIR      67  32  27 W5        30.07R
SPOKANE        FAIR      68  28  22 N3        30.10R
$$

REGIONAL REPORTS...ALBERTA

CITY           SKY/WX    TMP DP  RH WIND       PRES   REMARKS
CALGARY        PTCLDY    50  28  43 SE9       30.12S
CARDSTON         N/A     46  32  57 S3          N/A
EDMONTON       CLEAR     52  21  30 SW3       30.03F
FORT MCMURRAY  MOCLDY    55  23  28 SW10      29.87F
HIGH LEVEL     PTCLDY    61  25  25 VRB2      29.82R
LETHBRIDGE     PTCLDY    46  30  53 S3        30.16S
LLOYDMINSTER   MOCLDY    43  25  49 W8        30.05S
MEDICINE HAT   CLEAR     50  23  34 NW5       30.14R
MILK RIVER       N/A     45  32  61 CALM        N/A
PEACE RIVER    PTCLDY    48  36  61 SW6       29.96S
PINCHER CREEK  CLEAR     45  32  61 SE7       30.16S
WATERTON GATE    N/A     43  28  56 E5          N/A
$$

REGIONAL REPORTS...SASKATCHEWAN

CITY           SKY/WX    TMP DP  RH WIND       PRES   REMARKS
CORONACH         N/A     48  32  53 N10         N/A
ESTEVAN        PTCLDY    48  30  49 N13G20    29.98R
MOOSE JAW        N/A     46  23  39 N8          N/A
PRINCE ALBERT  PTCLDY    43  25  49 NW2       30.04R
REGINA         PTCLDY    48  27  43 N10       30.04R
ROCKGLEN         N/A     43  30  61 NW6         N/A
SASKATOON      PTCLDY    48  25  40 N3        30.06R
SWIFT CURRENT  CLEAR     46  28  49 N7        30.09R
VAL MARIE        N/A     41  27  56 NW8         N/A
$$




USA.gov is the U.S. government's official web portal to all federal, state and local government web resources and services.